This is the latest recevied weather packets stored in our database for station/object KC1BRV. If no packets are shown the sender has not sent any weather packets the latest 10 day(s).
| Time | Temp. | Humidity | Pressure | Rain* | Wind** | Luminosity | Snow |
|---|---|---|---|---|---|---|---|
| 1788350515 | 17.22° C | 99% | 1022.7 hPa | 0 mm | - | 88 W/m² | - |
| 1788350214 | 17.22° C | 99% | 1022.6 hPa | 0 mm | - | 79 W/m² | - |
| 1788349910 | 16.67° C | 99% | 1022.6 hPa | 0 mm | - | 78 W/m² | - |
| 1788349606 | 16.67° C | 99% | 1022.8 hPa | 0 mm | - | 65 W/m² | - |
| 1788349301 | 16.67° C | 99% | 1022.9 hPa | 0 mm | - | 65 W/m² | - |
| 1788348997 | 16.67° C | 99% | 1022.5 hPa | 0 mm | - | 62 W/m² | - |
| 1788348691 | 16.67° C | 99% | 1022.4 hPa | 0 mm | - | 64 W/m² | - |
| 1788348386 | 16.67° C | 99% | 1022.7 hPa | 0 mm | - | 79 W/m² | - |
| 1788348084 | 16.11° C | 99% | 1022.6 hPa | 0 mm | - | 84 W/m² | - |
| 1788347779 | 16.11° C | 99% | 1022.5 hPa | 0 mm | - | 79 W/m² | - |
| 1788347475 | 15.56° C | 99% | 1022.5 hPa | 0 mm | - | 68 W/m² | - |
| 1788347171 | 15.56° C | 99% | 1022.3 hPa | 0 mm | - | 52 W/m² | - |
| 1788346867 | 15.56° C | 99% | 1022.3 hPa | 0 mm | - | 45 W/m² | - |
| 1788346561 | 15.56° C | 99% | 1022.3 hPa | 0 mm | - | 32 W/m² | - |
| 1788346260 | 15° C | 99% | 1022.2 hPa | 0 mm | - | 25 W/m² | - |
| 1788345956 | 15° C | 99% | 1022.2 hPa | 0 mm | - | 19 W/m² | - |
| 1788345651 | 15° C | 99% | 1022.1 hPa | 0 mm | - | 9 W/m² | - |
| 1788345346 | 15° C | 99% | 1022.3 hPa | 0 mm | - | 7 W/m² | - |
| 1788345041 | 15° C | 99% | 1022.1 hPa | 0 mm | - | 7 W/m² | - |
| 1788344738 | 15° C | 99% | 1022 hPa | 0 mm | - | 6 W/m² | - |
| 1788344454 | 15° C | 99% | 1022 hPa | 0 mm | - | 5 W/m² | - |
| 1788344130 | 15° C | 99% | 1022.1 hPa | 0 mm | - | 3 W/m² | - |
| 1788343828 | 14.44° C | 99% | 1022.1 hPa | 0 mm | - | 1 W/m² | - |
| 1788343523 | 14.44° C | 99% | 1021.8 hPa | 0 mm | - | 1 W/m² | - |
| 1788343217 | 14.44° C | 99% | 1021.6 hPa | 0 mm | - | 0 W/m² | - |
* Rain latest hour (hover to see other rain measurements)
** Current wind speed in m/s (hover to see current wind gust speed)